When you browse on this site, cookies collect data to enhance your experience and personalize the content and advertising you see.
Visit our Privacy Policy to learn more. By continuing to use the site, you agree to this use of cookies and data.
  • In Hungary
  • List of Countries
  • For 7 days
  • Water Temperature
  • Satellite Maps
  • Weather Map
  • News
  • Weather Widgets
  • user-avatar
    Login

    Hourly Weather Barra

    Today, 18 November, Sunday

    Time Temperature Precipitation Wind Pressure Humidity
    00:00 +22°C° 0 mm 1 mps 748 mmHg 88%
    01:00 +22°C° 0 mm 1 mps 748 mmHg 90%
    02:00 +22°C° 0 mm 1 mps 748 mmHg 91%
    03:00 +21°C° 0 mm 1 mps 747 mmHg 92%
    04:00 +21°C° 0 mm 1 mps 747 mmHg 94%
    05:00 +22°C° 0 mm 1 mps 747 mmHg 89%
    06:00 +23°C° 0 mm 1 mps 748 mmHg 83%
    07:00 +25°C° 0 mm 1 mps 748 mmHg 78%
    08:00 +27°C° 0 mm 2 mps 748 mmHg 68%
    09:00 +29°C° 0 mm 2 mps 748 mmHg 58%
    10:00 +31°C° 0 mm 3 mps 748 mmHg 52%
    11:00 +33°C° 0 mm 3 mps 748 mmHg 49%
    12:00 +33°C° 0 mm 3 mps 748 mmHg 46%
    13:00 +34°C° 0 mm 4 mps 747 mmHg 43%
    14:00 +34°C° 0 mm 4 mps 747 mmHg 45%
    15:00 +33°C° 0 mm 4 mps 747 mmHg 46%
    16:00 +31°C° 0 mm 3 mps 747 mmHg 47%
    17:00 +30°C° 0 mm 3 mps 747 mmHg 56%
    18:00 +28°C° 0 mm 2 mps 747 mmHg 64%
    19:00 +26°C° 0 mm 2 mps 748 mmHg 73%
    20:00 +25°C° 0 mm 2 mps 748 mmHg 77%
    21:00 +24°C° 0 mm 2 mps 748 mmHg 82%
    22:00 +24°C° 0 mm 1 mps 749 mmHg 86%
    23:00 +23°C° 0 mm 2 mps 748 mmHg 87%

    Tomorrow, 19 November, Monday

    Time Temperature Precipitation Wind Pressure Humidity
    00:00 +23°C° 0 mm 2 mps 748 mmHg 89%
    01:00 +23°C° 0 mm 2 mps 748 mmHg 90%
    02:00 +23°C° 0 mm 2 mps 748 mmHg 91%
    03:00 +23°C° 0 mm 2 mps 748 mmHg 91%
    04:00 +23°C° 0 mm 2 mps 747 mmHg 92%
    05:00 +24°C° 0 mm 2 mps 748 mmHg 86%
    06:00 +25°C° 0 mm 3 mps 748 mmHg 80%
    07:00 +26°C° 0 mm 3 mps 749 mmHg 74%
    08:00 +28°C° 0 mm 3 mps 749 mmHg 67%
    09:00 +29°C° 0 mm 3 mps 749 mmHg 59%
    10:00 +32°C° 0 mm 4 mps 749 mmHg 52%
    11:00 +33°C° 0 mm 4 mps 748 mmHg 49%
    12:00 +33°C° 0 mm 4 mps 748 mmHg 46%
    13:00 +34°C° 0 mm 4 mps 747 mmHg 43%
    14:00 +34°C° 0 mm 4 mps 747 mmHg 45%
    15:00 +33°C° 0 mm 3 mps 747 mmHg 47%
    16:00 +33°C° 0 mm 3 mps 746 mmHg 49%
    17:00 +30°C° 0 mm 3 mps 747 mmHg 57%
    18:00 +28°C° 0 mm 3 mps 747 mmHg 65%
    19:00 +26°C° 0 mm 2 mps 748 mmHg 73%
    20:00 +25°C° 0 mm 2 mps 748 mmHg 77%
    21:00 +25°C° 0 mm 2 mps 749 mmHg 81%
    22:00 +24°C° 0 mm 2 mps 749 mmHg 85%
    23:00 +24°C° 0 mm 3 mps 749 mmHg 86%

    Day after tomorrow, 20 November, Tuesday

    Time Temperature Precipitation Wind Pressure Humidity
    00:00 +24°C° 0 mm 3 mps 748 mmHg 87%
    01:00 +24°C° 0 mm 3 mps 748 mmHg 88%
    02:00 +24°C° 0 mm 3 mps 748 mmHg 88%
    03:00 +24°C° 0 mm 3 mps 747 mmHg 88%
    04:00 +24°C° 0 mm 2 mps 747 mmHg 88%
    05:00 +25°C° 0 mm 3 mps 748 mmHg 85%
    06:00 +26°C° 0 mm 3 mps 748 mmHg 82%
    07:00 +26°C° 0 mm 3 mps 749 mmHg 78%
    08:00 +28°C° 0 mm 3 mps 749 mmHg 71%
    09:00 +29°C° 0 mm 3 mps 749 mmHg 64%
    10:00 +30°C° 0 mm 3 mps 749 mmHg 57%
    11:00 +31°C° 0 mm 3 mps 748 mmHg 53%
    12:00 +34°C° 0 mm 4 mps 748 mmHg 49%
    13:00 +35°C° 0 mm 4 mps 747 mmHg 46%
    14:00 +34°C° 0 mm 4 mps 747 mmHg 48%
    15:00 +34°C° 0 mm 4 mps 746 mmHg 50%
    16:00 +33°C° 0 mm 3 mps 746 mmHg 52%
    17:00 +30°C° 0 mm 3 mps 746 mmHg 60%
    18:00 +28°C° 0 mm 3 mps 746 mmHg 69%
    19:00 +26°C° 0 mm 2 mps 747 mmHg 77%
    20:00 +26°C° 0 mm 2 mps 747 mmHg 81%
    21:00 +25°C° 0 mm 2 mps 748 mmHg 85%
    22:00 +24°C° 0 mm 2 mps 748 mmHg 89%
    23:00 +24°C° 0 mm 2 mps 748 mmHg 90%

    21 November, Wednesday

    Time Temperature Precipitation Wind Pressure Humidity
    00:00 +24°C° 0 mm 2 mps 747 mmHg 91%
    01:00 +24°C° 0 mm 2 mps 747 mmHg 92%
    02:00 +24°C° 0 mm 2 mps 747 mmHg 92%
    03:00 +24°C° 0 mm 2 mps 747 mmHg 92%
    04:00 +24°C° 0 mm 2 mps 746 mmHg 93%
    05:00 +25°C° 0 mm 2 mps 747 mmHg 89%
    06:00 +26°C° 0 mm 2 mps 748 mmHg 84%
    07:00 +26°C° 0 mm 2 mps 748 mmHg 80%
    08:00 +28°C° 0 mm 2 mps 748 mmHg 71%
    09:00 +31°C° 0 mm 2 mps 748 mmHg 61%
    10:00 +34°C° 0 mm 3 mps 748 mmHg 51%
    11:00 +34°C° 0 mm 3 mps 748 mmHg 48%
    12:00 +35°C° 0 mm 3 mps 747 mmHg 44%
    13:00 +36°C° 0 mm 4 mps 746 mmHg 41%
    14:00 +36°C° 0 mm 4 mps 746 mmHg 43%
    15:00 +35°C° 0 mm 4 mps 745 mmHg 45%
    16:00 +34°C° 0 mm 4 mps 745 mmHg 48%
    17:00 +32°C° 0 mm 4 mps 745 mmHg 56%
    18:00 +29°C° 0 mm 3 mps 745 mmHg 65%
    19:00 +27°C° 0 mm 3 mps 746 mmHg 74%
    20:00 +27°C° 0 mm 3 mps 746 mmHg 78%
    21:00 +26°C° 0 mm 3 mps 746 mmHg 83%
    22:00 +25°C° 0 mm 3 mps 747 mmHg 87%
    23:00 +25°C° 0 mm 3 mps 746 mmHg 89%

    22 November, Thursday

    Time Temperature Precipitation Wind Pressure Humidity
    00:00 +24°C° 0 mm 3 mps 746 mmHg 91%
    01:00 +24°C° 0 mm 3 mps 746 mmHg 93%
    02:00 +24°C° 0 mm 2 mps 746 mmHg 92%
    03:00 +24°C° 0 mm 2 mps 746 mmHg 91%
    04:00 +24°C° 0 mm 2 mps 745 mmHg 90%
    05:00 +25°C° 0 mm 2 mps 746 mmHg 84%
    06:00 +26°C° 0 mm 2 mps 747 mmHg 79%
    07:00 +27°C° 0 mm 2 mps 747 mmHg 73%
    08:00 +30°C° 0 mm 3 mps 747 mmHg 61%
    09:00 +34°C° 0 mm 3 mps 748 mmHg 50%
    10:00 +37°C° 0 mm 3 mps 748 mmHg 38%
    11:00 +38°C° 0 mm 3 mps 747 mmHg 39%
    12:00 +38°C° 0 mm 4 mps 747 mmHg 39%
    13:00 +38°C° 0 mm 4 mps 746 mmHg 39%
    14:00 +36°C° 0.1 mm 4 mps 745 mmHg 49%
    15:00 +33°C° 0.1 mm 4 mps 745 mmHg 59%
    16:00 +30°C° 0.1 mm 3 mps 745 mmHg 69%
    17:00 +30°C° 0 mm 3 mps 745 mmHg 73%
    18:00 +29°C° 0 mm 3 mps 745 mmHg 76%
    19:00 +28°C° 0 mm 3 mps 746 mmHg 80%
    20:00 +28°C° 0 mm 3 mps 746 mmHg 81%
    21:00 +28°C° 0 mm 2 mps 747 mmHg 82%
    22:00 +27°C° 0 mm 2 mps 747 mmHg 84%
    23:00 +27°C° 0 mm 2 mps 747 mmHg 85%

    23 November, Friday

    Time Temperature Precipitation Wind Pressure Humidity
    00:00 +27°C° 0 mm 2 mps 746 mmHg 85%
    01:00 +27°C° 0 mm 2 mps 746 mmHg 86%
    02:00 +26°C° 0.2 mm 2 mps 746 mmHg 86%
    03:00 +26°C° 0.2 mm 2 mps 746 mmHg 87%
    04:00 +26°C° 0.2 mm 2 mps 745 mmHg 87%
    05:00 +27°C° 0.2 mm 2 mps 746 mmHg 81%
    06:00 +28°C° 0.2 mm 1 mps 747 mmHg 75%
    07:00 +30°C° 0.2 mm 1 mps 747 mmHg 70%
    08:00 +32°C° 0 mm 1 mps 747 mmHg 60%
    09:00 +35°C° 0 mm 1 mps 747 mmHg 50%
    10:00 +39°C° 0 mm 2 mps 747 mmHg 40%
    11:00 +38°C° 0.1 mm 2 mps 747 mmHg 42%
    12:00 +37°C° 0.1 mm 3 mps 747 mmHg 44%
    13:00 +36°C° 0.1 mm 3 mps 746 mmHg 47%
    14:00 +36°C° 0.1 mm 3 mps 746 mmHg 47%
    15:00 +36°C° 0.1 mm 3 mps 745 mmHg 48%
    16:00 +37°C° 0.1 mm 3 mps 745 mmHg 49%
    17:00 +35°C° 0 mm 4 mps 745 mmHg 58%
    18:00 +33°C° 0 mm 4 mps 746 mmHg 66%
    19:00 +30°C° 0 mm 4 mps 746 mmHg 75%
    20:00 +29°C° 0 mm 3 mps 746 mmHg 80%
    21:00 +28°C° 0 mm 3 mps 747 mmHg 85%
    22:00 +28°C° 0 mm 3 mps 747 mmHg 89%
    23:00 +27°C° 0 mm 3 mps 747 mmHg 90%
    Show more